Location: Mount Wilson Observatory
(34.2257°N, 118.0571°W)
Time: 23:30:21
(UTC-08:00)

ATLAS 3B CENTAUR R/B - Visible Passes

Search period start: 26 February 2015 00:00
Search period end: 08 March 2015 00:00
Orbit: 224 x 7974 km, 28.2° (Epoch: 26 February)

Date Brightness Start Highest point End Pass type
(mag) Time Alt. Az. Time Alt. Az. Time Alt. Az.
26 Feb 4.8 20:10:45 10° W 20:46:36 51° SW 20:51:09 41° S visible
27 Feb 4.9 19:47:51 10° W 20:27:31 54° SSW 20:33:56 37° SSE visible
28 Feb 5.0 19:24:36 10° W 20:08:01 57° SSW 20:16:31 32° SSE visible
01 Mar 5.2 19:01:06 10° W 19:48:07 60° SSW 19:58:53 26° SE visible
01 Mar 6.1 22:50:21 10° W 22:56:40 12° WSW 22:56:40 12° WSW visible
02 Mar 5.4 18:37:26 10° W 19:27:45 62° SSW 19:41:02 20° SE visible
02 Mar 5.9 22:26:15 10° W 22:37:54 15° WSW 22:38:47 15° SW visible
03 Mar 5.5 18:13:40 10° W 19:06:55 65° SSW 19:22:58 15° SE visible
03 Mar 5.8 22:02:08 10° W 22:18:19 19° SW 22:20:42 17° SW visible
04 Mar 5.7 17:49:52 10° W 18:45:35 67° SSW 19:04:38 10° SE visible
04 Mar 5.7 21:37:40 10° W 21:58:24 22° SW 22:02:25 19° SW visible
05 Mar 5.8 17:26:06 10° W 18:23:43 69° SSW 18:44:49 10° ESE visible
05 Mar 5.7 21:12:47 10° W 21:38:10 25° SW 21:43:54 20° SSW visible
06 Mar 6.0 17:02:22 10° W 18:01:19 71° SSW 18:24:42 10° ESE visible
06 Mar 5.6 20:47:29 10° W 21:17:33 29° SW 21:25:10 20° SSW visible
07 Mar 5.7 20:21:51 10° WNW 20:56:32 33° SW 21:06:14 19° S visible
